GW6121 Weather Reports


Display with metric or nautical units.
time (UTC)temp
F
wind
direction
speed
MPH
gust
MPH
rain 1hr
in
rain 24hr
in
rain mn
in
humidity
%
barometer
mb
20260507120055 66 103 10.0 0.0 0.00 0.00 0.01 59 1011.7
20260507114502 66 142 8.0 0.0 0.00 0.00 0.01 57 1012.0
20260507113135 66 177 7.0 0.0 0.00 0.00 0.01 58 1012.1
20260507111615 66 151 7.0 0.0 0.00 0.00 0.01 59 1012.2
20260507110019 66 155 7.0 0.0 0.00 0.00 0.01 61 1012.2
20260507104515 66 119 6.0 0.0 0.00 0.00 0.01 62 1012.3
20260507103005 66 157 5.0 0.0 0.00 0.00 0.01 63 1012.4
20260507101639 66 144 6.0 0.0 0.00 0.00 0.01 64 1012.6
20260507100113 66 138 4.0 0.0 0.00 0.00 0.01 67 1012.6
20260507094604 65 143 3.0 0.0 0.00 0.00 0.01 68 1012.6
20260507093011 65 136 4.0 0.0 0.00 0.00 0.01 69 1012.6
20260507091503 64 182 4.0 0.0 0.00 0.00 0.01 69 1012.5
20260507090128 64 246 3.0 0.0 0.00 0.00 0.01 70 1012.5
20260507084608 64 244 2.0 0.0 0.00 0.00 0.01 70 1012.5
20260507083002 63 166 2.0 0.0 0.00 0.00 0.01 74 1012.7
20260507081629 62 126 2.0 0.0 0.00 0.00 0.01 77 1012.8
20260507080117 60 290 0.0 0.0 0.00 0.00 0.01 83 1012.9
20260507074559 59 292 1.0 0.0 0.00 0.00 0.01 88 1012.9
20260507073003 56 226 2.0 0.0 0.00 0.00 0.01 89 1012.8
20260507071641 55 228 1.0 0.0 0.00 0.00 0.01 89 1012.8
20260507070119 54 245 2.0 0.0 0.00 0.00 0.01 89 1012.8
20260507064618 53 38 2.0 0.0 0.00 0.00 0.01 89 1012.7
20260507063016 52 222 1.0 0.0 0.00 0.00 0.01 90 1012.7
20260507061503 51 234 2.0 0.0 0.00 0.00 0.01 90 1012.6
20260507060131 50 243 1.0 0.0 0.00 0.00 0.01 90 1012.4
20260507054610 49 217 0.0 0.0 0.00 0.00 0.01 90 1012.4
20260507053010 48 360 1.0 0.0 0.00 0.00 0.01 90 1012.4
20260507051503 48 240 0.0 0.0 0.00 0.00 0.01 90 1012.2
20260507050132 48 246 2.0 0.0 0.00 0.00 0.01 90 1012.3
20260507044622 48 355 1.0 0.0 0.00 0.00 0.01 90 1012.1
20260507043104 48 355 1.0 0.0 0.00 0.00 0.01 90 1012.2
20260507041610 49 355 0.0 0.0 0.00 0.00 0.01 90 1012.1
20260507040008 49 355 0.0 0.0 0.00 0.00 0.01 89 1012.2
20260507034638 50 355 1.0 0.0 0.00 0.00 0.01 90 1012.0
20260507033121 50 355 1.0 0.0 0.00 0.00 0.00 89 1011.8
20260507031606 50 355 0.0 0.0 0.00 0.00 0.00 89 1012.0
20260507030016 51 355 0.0 0.0 0.00 0.00 0.00 89 1012.0
20260507024508 51 355 0.0 0.0 0.00 0.00 0.00 89 1012.0
20260507023143 51 355 0.0 0.0 0.00 0.00 0.00 89 1012.0
20260507021628 52 355 0.0 0.0 0.00 0.00 0.00 89 1012.0
20260507014523 53 355 0.0 0.0 0.00 0.00 0.00 89 1012.1
20260507013143 53 355 0.0 0.0 0.00 0.00 0.00 89 1012.2
20260507011618 53 355 0.0 0.0 0.00 0.00 0.00 89 1012.2
20260507010056 53 355 0.0 0.0 0.00 0.00 0.00 89 1012.4
20260507004516 54 355 0.0 0.0 0.00 0.00 0.00 89 1012.6
20260507003141 53 355 1.0 0.0 0.00 0.00 0.00 89 1012.6
20260507001623 54 355 0.0 0.0 0.00 0.00 0.00 89 1012.7
20260507000112 54 355 1.0 0.0 0.00 0.00 0.00 89 1012.8
20260506234513 54 355 1.0 0.0 0.00 0.00 0.00 89 1012.7
20260506233137 54 355 1.0 0.0 0.00 0.00 0.00 89 1012.8
20260506231612 54 355 1.0 0.0 0.00 0.00 0.00 88 1012.9
20260506230009 55 360 1.0 0.0 0.00 0.00 0.00 88 1012.9
20260506224627 55 360 2.0 0.0 0.00 0.00 0.00 88 1012.8
20260506223138 55 123 2.0 0.0 0.00 0.00 0.00 88 1012.9
20260506221514 56 117 2.0 0.0 0.00 0.00 0.00 87 1012.9
20260506220118 56 69 0.0 0.0 0.00 0.00 0.00 87 1012.9
20260506214650 56 69 1.0 0.0 0.00 0.00 0.01 87 1013.0
20260506213021 56 68 1.0 0.0 0.00 0.00 0.01 87 1013.1
20260506211626 57 68 3.0 0.0 0.00 0.00 0.01 87 1012.9
20260506210004 57 47 1.0 0.0 0.00 0.00 0.01 87 1013.0
20260506204618 57 9 3.0 0.0 0.00 0.00 0.01 87 1012.8
20260506203148 57 74 3.0 0.0 0.00 0.00 0.01 87 1012.6
20260506201610 58 57 3.0 0.0 0.00 0.00 0.01 87 1012.5
20260506200152 58 67 3.0 0.0 0.00 0.00 0.01 86 1012.2
20260506194620 58 40 4.0 0.0 0.00 0.00 0.01 86 1011.9
20260506193015 59 11 2.0 0.0 0.00 0.00 0.01 85 1011.8
20260506191513 60 346 1.0 0.0 0.00 0.00 0.01 85 1011.5
20260506190138 59 191 1.0 0.0 0.00 0.00 0.01 84 1011.2
20260506184624 60 171 3.0 0.0 0.00 0.00 0.01 84 1010.8
20260506183057 60 134 3.0 0.0 0.00 0.00 0.01 83 1010.8
20260506181510 60 131 4.0 0.0 0.00 0.00 0.01 84 1010.6
20260506180145 60 132 4.0 0.0 0.00 0.00 0.01 84 1010.6
20260506174625 59 123 7.0 0.0 0.00 0.00 0.01 84 1010.4
20260506173129 59 130 9.0 0.0 0.00 0.00 0.01 84 1010.3
20260506171602 60 146 7.0 0.0 0.00 0.00 0.00 83 1010.4
20260506170049 59 123 6.0 0.0 0.00 0.00 0.00 82 1010.3
20260506164642 59 90 7.0 0.0 0.00 0.00 0.00 82 1010.2
20260506163132 60 109 9.0 0.0 0.00 0.00 0.00 81 1010.1
20260506161613 61 111 7.0 0.0 0.00 0.00 0.00 73 1010.0
20260506160020 64 192 10.0 0.0 0.00 0.00 0.00 69 1009.5
20260506154504 64 58 14.0 0.0 0.00 0.00 0.00 67 1009.1
20260506153132 65 172 13.0 0.0 0.00 0.00 0.00 65 1008.9
20260506151612 66 213 12.0 0.0 0.00 0.00 0.00 66 1009.0
20260506150023 65 54 12.0 0.0 0.00 0.00 0.00 66 1009.2
20260506144509 65 46 11.0 0.0 0.00 0.00 0.00 67 1009.1
20260506143143 65 57 11.0 0.0 0.00 0.00 0.00 68 1009.1
20260506141624 65 53 11.0 0.0 0.00 0.00 0.00 66 1009.3
20260506140100 65 52 13.0 0.0 0.00 0.00 0.00 67 1009.5
20260506134516 65 53 11.0 0.0 0.00 0.00 0.00 66 1009.6
20260506133142 66 77 11.0 0.0 0.00 0.00 0.00 63 1009.7
20260506131617 67 86 11.0 0.0 0.00 0.00 0.00 62 1009.8
20260506130110 66 78 9.0 0.0 0.00 0.00 0.00 61 1010.0
20260506124552 67 78 11.0 0.0 0.00 0.00 0.00 62 1010.0
20260506123142 66 182 11.0 0.0 0.00 0.00 0.00 62 1010.0
20260506121623 67 181 8.0 0.0 0.00 0.00 0.00 63 1010.1